User: anonymous   Login
Location: Stonelick Lake State Park
(39.2170°N, 84.0850°W)
Time: 13:32:55
(UTC-04:00)
Language:

Abrixas rocket - Orbit

View from above orbital plane
View from above orbital plane
View from above satellite
View from above satellite

Ground track
Ground track

The orbit data is extracted from the following two-line orbital elements,

1 25723U 99022C   16182.16804425  .00003339  00000-0  68749-4 0  9995
2 25723  48.4178 236.9824 0010376 144.1499 248.3770 15.48778038951834
Epoch (UTC): 30 June 2016 04:01:59
Eccentricity: 0.0010376
inclination: 48.4178°
perigee height: 413 km
apogee height: 427 km
right ascension of ascending node: 236.9824°
argument of perigee: 144.1499°
revolutions per day: 15.48778038
mean anomaly at epoch: 248.3770°
orbit number at epoch: 95183

The dashed part of the orbit path shows where the satellite is in the earth's shadow,  

DLR